Location: �perlecques
(50.8057°N, 2.1521°E)
Time: 05:46:37
(UTC+00:00)

KKS-1 - Pass Details

Date: 07 April 2023
Orbit: 629 x 640 km, 98.1° (Epoch: 18 April)

Event Time Altitude Azimuth Distance (km) Brightness Sun altitude
Rises 21:23:02 0° 28° (NNE) 2,932 ? -23.7°
Reaches altitude 10° 21:25:59 10° 50° (NE) 2,020 ? -24.0°
Enters shadow 21:26:21 11° 53° (NE) 1,934 ? -24.1°
